STARLINK-32457, 61717

Orbit data source: Space-Track

STARLINK-32457, 61717 is a payload satellite owned by SpaceX/Seattle (US) in LEO that was launched on Wed, 30 Oct 2024 UTC via an FALCON 9 launch vehicle from the Air Force Eastern Test Range (AFETR). Payload-class satellites include a variety of spacecraft equipped with specific instruments for various scientific and technological missions. These include communications satellites like Starlink; space stations such as the ISS; scientific satellites like the Hubble; Earth observation satellites from companies like Planet Labs, Umbra, and HawkEye 360; GPS; miniature CubeSats for education and research; and military/defense satellites.

Loading next visibility...
Identifier
61717, 2024-196L
Orbit
LEO
Country
Flag of USUS
Related business
Manufacturer
SpaceX/Seattle
Mission
Operational Commercial Communications
Bus & Motor
STARLINK V2M, Unknown motor
Mass
730 kg wet, ~700 kg dry
Launch date (UTC)
2024-10-30 (2 years ago)
Launch vehicle
FALCON 9
Launch site
Air Force Eastern Test Range (AFETR)
Object type
Payload
Rocket body
Debris
Shape & HBR
Box + 2 Pan, 17.7 m
Radar Cross Section
33.884 m², Large (>1 m²)

Expand to show TLE details & history
Last TLE update: 17 hours ago

TLE from 17 hours ago
0 STARLINK-32457
1 61717U 24196L   26125.61153081 -.00002093  00000-0 -58583-4 0  9994
2 61717  53.1568 196.7919 0000916  88.6733 271.4373 15.30191829 85879
Epoch: 2026-05-05T14:40Z
TLE epoch observation values (Epoch: 2026-05-05T14:40:36.261Z)
Latitude
-0.00002°
Longitude
113.15691°
Altitude
476.123 km
Speed
7.629 km/s
True Right ascension
13h 07m 10s
True Declination
0° 00' 00"
Sunlit
Object was in full shadow at epoch
Visualization orbit readout
Latitude
Unknown
Longitude
Unknown
Altitude
Unknown
Speed
Unknown
Apparent Right ascension
Unknown
Apparent Declination
Unknown
Sunlit
N/A
Visualization observer readout
Local Sidereal Time
15:15:42
Azimuth
Unknown
Elevation
Unknown
Doppler factor
Unknown
Orbital elements
Apogee altitude
476.124 km
Perigee altitude
474.869 km
Semi-major axis
6,853.633 km
Eccentricity
0.00009
Inclination
53.1568°
RAAN
196.7919°
Arg. of periapsis
88.6733°
True anomaly
271.42681°
Mean anomaly
271.4373°
Eccentric anomaly
271.43205°
Mean motion
3.82527 °/min
Orbital period
94.11 mins
BSTAR
-0.000058583
Loading maneuver chart data...
Computing Atmospheric mass density...
Loading historical data...
Loading historical data...
Loading historical data...
Loading historical data...
Loading historical data...
Loading historical data...
Loading historical data...

Documentation

Showing up to 5 results
|